SB KEPS @ AMSAT $ORB11363.N 2Line Orbital Elements 11363.AMSAT
HR AMSAT ORBITAL ELEMENTS FOR AMATEUR SATELLITES IN NASA FORMAT FROM WA5QGD FORT WORTH,TX December 29, 2011 Send Subscribe/unsubscribe to KEPS at http://www.amsat.org/mailman/listinfo/keps BID: ORB11363.N
DECODE 2-LINE ELSETS WITH THE FOLLOWING KEY: 1 AAAAAU 00 0 0 BBBBB.BBBBBBBB .CCCCCCCC 00000-0 00000-0 0 DDDZ 2 AAAAA EEE.EEEE FFF.FFFF GGGGGGG HHH.HHHH III.IIII JJ.JJJJJJJJKKKKKZ KEY: A-CATALOGNUM B-EPOCHTIME C-DECAY D-ELSETNUM E-INCLINATION F-RAAN G-ECCENTRICITY H-ARGPERIGEE I-MNANOM J-MNMOTION K-ORBITNUM Z-CHECKSUM
TO ALL RADIO AMATEURS BT
AO-07 1 07530U 74089B 11362.96224543 -.00000027 00000-0 10000-3 0 02673 2 07530 101.3969 001.8360 0011823 258.6089 101.3658 12.53586741698590 FO-29 1 24278U 96046B 11362.84328549 .00000003 00000-0 36018-4 0 07548 2 24278 098.5744 121.0279 0351176 112.9206 250.9388 13.52974958758781 SO-33 1 25509U 98061B 11362.72650248 .00000656 00000-0 11815-3 0 01327 2 25509 031.4302 223.8999 0353080 143.2147 219.3340 14.28632236688112 RS-22 1 27939U 03042A 11363.73806406 .00000667 00000-0 13598-3 0 9434 2 27939 097.8228 208.1649 0014565 085.9157 274.3715 14.63847021440940 VO-52 1 28650U 05017B 11362.64827264 .00000912 00000-0 11906-3 0 09864 2 28650 097.6191 036.8555 0025491 243.6545 116.2045 14.82568641359559 SO-67 1 35870U 09049F 11363.76300387 .00004442 00000-0 19510-3 0 5396 2 35870 097.2560 040.4630 0003683 063.7322 039.3255 15.22411250126676 HO-68 1 36122U 09072B 11363.27461342 -.00000044 00000-0 00000 0 0 556 2 36122 100.3901 060.8988 0007593 137.8614 222.3083 13.16291958 97903 UO-11 1 14781U 84021B 11363.72048500 .00000542 00000-0 78208-4 0 7466 2 14781 097.9801 059.5437 0008177 222.4485 137.6094 14.80253873494716 AO-16 1 20439U 90005D 11362.90326226 .00000144 00000-0 69421-4 0 03691 2 20439 098.4101 306.2614 0010400 310.7889 049.2391 14.32000695145486 LO-19 1 20442U 90005G 11363.86065335 .00000146 00000-0 69750-4 0 2834 2 20442 098.3749 310.8071 0010983 298.6353 061.3728 14.32222825145807 AO-27 1 22825U 93061C 11362.82231503 .00000033 00000-0 29932-4 0 09967 2 22825 098.5559 303.4842 0009192 066.0059 294.2102 14.29414901951991 IO-26 1 22826U 93061D 11363.83552550 .00000137 00000-0 70415-4 0 7424 2 22826 098.5501 304.8954 0009800 057.0192 303.1935 14.29684809952263 GO-32 1 25397U 98043D 11363.84698034 .00000081 00000-0 53923-4 0 6651 2 25397 098.3444 346.1207 0002195 074.1535 285.9886 14.23249199699795 NO-44 1 26931U 01043C 11363.84792738 .00000250 00000-0 12933-3 0 9326 2 26931 067.0487 199.3388 0005182 277.8256 082.2256 14.29743814534896 SO-50 1 27607U 02058C 11362.72493297 .00001130 00000-0 19100-3 0 06506 2 27607 064.5592 096.3899 0084418 281.7292 077.4336 14.72125543484724 CO-55 1 27844U 03031E 11362.53507136 .00000342 00000-0 17793-3 0 02751 2 27844 098.7045 008.4116 0010177 001.9309 358.1904 14.20935486440514 CO-57 1 27848U 03031J 11363.49539791 .00000262 00000-0 14197-3 0 2232 2 27848 098.7115 008.6187 0010100 005.5266 354.6033 14.20699296440592 AO-51 1 28375U 04025K 11363.46371788 .00000340 00000-0 11455-3 0 1554 2 28375 098.1229 331.9164 0082823 197.8644 161.9545 14.40878614394186 CP3 1 31129U 07012N 11363.50038670 .00000924 00000-0 22109-3 0 554 2 31129 097.8875 016.3229 0100679 294.3751 064.6975 14.52820172249193 CO-65 1 32785U 08021C 11362.70445284 .00001313 00000-0 16958-3 0 01894 2 32785 097.8257 062.6575 0013705 262.0424 097.9189 14.82564762198356 PRISM 1 33493U 09002B 11363.80785484 .00003514 00000-0 43832-3 0 2811 2 33493 098.1467 135.6979 0020092 127.7347 232.5698 14.82947905158494 SOHLA-1 1 33496U 09002E 11362.96989572 .00000402 00000-0 75602-4 0 06171 2 33496 098.0904 111.0129 0005768 219.5541 140.5249 14.69824016157093 TISAT-1 1 36799U 10035E 11363.81968871 .00002046 00000-0 26843-3 0 5528 2 36799 098.0824 073.8575 0015309 008.8128 351.3330 14.81354307 79265 STUDSAT 1 36801U 10035G 11362.88317631 .00005686 00000-0 71048-3 0 03102 2 36801 098.0875 073.0230 0013283 358.1237 001.9907 14.82683031079129 OOREOS 1 37224U 10062C 11330.25217324 .00002151 00000-0 30897-3 0 00339 2 37224 071.9741 041.3371 0020052 337.4654 022.5620 14.77385090005948 FO-69 1 37227U 0 11362.47956699 .00000821 00000-0 12445-3 0 00619 2 37227 071.9715 330.7957 0018911 278.4705 081.4295 14.76870450010743 FO-70 1 37380U 0 11362.52442212 .00000787 00000-0 12026-3 0 00645 2 37380 071.9748 331.0410 0019461 275.6214 084.2706 14.76627493010646 NOAA-10 1 16969U 86073A 11362.71852919 .00000035 00000-0 31928-4 0 07645 2 16969 098.6007 029.6673 0012729 019.6144 340.5523 14.27515881315409 NOAA-11 1 19531U 88089A 11362.80698569 -.00000004 00000-0 20424-4 0 07603 2 19531 098.7442 086.5122 0011379 357.4556 002.6575 14.14946467200277 NOAA-12 1 21263U 91032A 11362.99114427 .00000094 00000-0 58568-4 0 02687 2 21263 098.7411 020.3586 0013705 342.3844 017.6860 14.25468329072162 MET-3/5 1 21655U 91056A 11362.68900538 .00000051 00000-0 10000-3 0 02984 2 21655 082.5591 273.3432 0014268 034.7684 325.4342 13.17033667979328 MET-2/21 1 22782U 93055A 11362.56030377 -.00000020 00000-0 -31699-4 0 02952 2 22782 082.5456 168.6723 0021101 274.6500 085.2261 13.83671816925436 OKEAN-4 1 23317U 94066A 11363.87292754 .00000949 00000-0 11214-3 0 7621 2 23317 082.5393 190.3720 0020975 190.0465 170.0335 14.83488951929558 NOAA-14 1 23455U 94089A 11362.93335728 .00000074 00000-0 62062-4 0 07496 2 23455 098.8392 083.5178 0010209 085.9823 274.2513 14.13866456876592 NOAA-15 1 25338U 98030A 11362.73705186 .00000023 00000-0 28633-4 0 00803 2 25338 098.6741 346.4162 0009793 245.8165 114.1989 14.25011214708439 RESURS 1 25394U 98043A 11363.90209008 .00000049 00000-0 38809-4 0 9770 2 25394 098.3075 356.2250 0002181 037.9287 322.2047 14.24266301700161 FENGYUN1 1 25730U 99025A 11362.90503715 .00000390 00000-0 24913-3 0 5029 2 25730 098.8324 320.0326 0021479 131.0537 229.2486 14.09128302650488 OKEAN-0 1 25860U 99039A 11362.93682957 .00000591 00000-0 97240-4 0 05192 2 25860 097.9116 324.3466 0001909 070.8543 289.2869 14.74032327669345 NOAA-16 1 26536U 00055A 11362.71233835 .00000254 00000-0 16192-3 0 05637 2 26536 099.1178 036.9974 0010320 202.9528 157.1160 14.12691289580828 NOAA-17 1 27453U 02032A 11362.90646555 .00000330 00000-0 16055-3 0 05454 2 27453 098.3558 033.4412 0010916 301.5110 058.4995 14.24376055494370 NOAA-18 1 28654U 05018A 11362.96206280 -.00000061 00000-0 -85412-5 0 00204 2 28654 099.0238 314.8439 0013556 277.6555 082.3081 14.11580877340402 NOAA-19 1 33591U 09005A 11362.93166565 -.00000013 00000-0 16779-4 0 02092 2 33591 098.8490 299.9987 0014429 142.6150 217.6026 14.11270639148857 HUBBLE 1 20580U 90037B 11362.92458795 .00001653 00000-0 11045-3 0 9142 2 20580 028.4692 183.8965 0003326 036.2633 323.8125 15.02039929988958 ISS 1 25544U 98067A 11363.93815972 .00015203 00000-0 19723-3 0 7217 2 25544 051.6440 256.1914 0024042 220.3253 314.6768 15.58736096751467 CO-58 1 28895U 05043F 11362.67310690 .00000888 00000-0 19218-3 0 00606 2 28895 097.9386 231.2480 0017478 333.6500 026.3868 14.60416076328622 FALCON 1 30776U 07006E 11363.91478759 .00004106 00000-0 27663-3 0 2485 2 30776 035.4331 235.8253 0003611 327.8206 032.2291 15.06276004264553 MAST 1 31126U 07012K 11362.94664932 .00000668 00000-0 16008-3 0 03519 2 31126 097.8821 019.0291 0093190 284.6787 074.4098 14.53984871249384 CAPE1 1 31130U 07012P 11362.49111331 .00000964 00000-0 23068-3 0 03573 2 31130 097.8858 015.1141 0100715 297.8710 061.2354 14.52703222248841 COMPASS 1 32787U 08021E 11362.83375360 .00002332 00000-0 29077-3 0 01851 2 32787 097.8255 062.8460 0014374 260.5585 099.3970 14.83320523198401 AAUSAT2 1 32788U 08021F 11363.64655216 .00002077 00000-0 25809-3 0 1735 2 32788 097.8262 063.9377 0013864 257.5345 102.4318 14.83584149198545 DO-64 1 32789U 08021G 11362.75986473 .00004403 00000-0 52646-3 0 1889 2 32789 097.8359 064.5152 0014173 258.8164 101.1433 14.84609180198434 CO-66 1 32791U 08021J 11362.83050034 .00001976 00000-0 25006-3 0 01800 2 32791 097.8263 062.7032 0014685 260.1391 099.8154 14.82858782198349 RS-30 1 32953U 08025A 11363.17167084 .00000010 00000-0 00000 0 0 3854 2 32953 082.5013 041.4883 0018036 324.8864 035.1026 12.43019037163315 TACSAT-3 1 35001U 09028A 11362.64977773 .00071291 00000-0 67610-3 0 8117 2 35001 040.4534 062.0143 0006011 182.0488 178.0313 15.65891704147355 PHARMSAT 1 35002U 09028B 11362.57561977 .00043547 00000-0 50738-3 0 07503 2 35002 040.4698 063.6051 0011099 231.9433 128.0388 15.60762182147335 HAWKSAT1 1 35003U 09028C 11276.79285837 .02274821 58283-2 19360-2 0 8114 2 35003 040.4398 174.3672 0011414 274.3918 085.3844 16.13812532134570 CP6 1 35004U 09028D 11247.64656856 .16152067 73217-5 10011-2 0 7842 2 35004 040.4403 342.9642 0002956 038.0069 322.2231 16.41039951130139 METEOR-M 1 35865U 09049A 11363.71242240 .00000003 00000-0 21003-4 0 225 2 35865 098.6806 056.0338 0002149 169.3497 190.7722 14.21852381118379 RS-38 1 35869U 09049E 11363.75780393 .00000077 00000-0 54585-4 0 120 2 35869 098.6774 056.0983 0004465 175.5682 184.5534 14.22047181118390 ARISSAT1 1 37772U 98067CK 11363.87162240 .01100589 77367-3 99248-3 0 4571 2 37772 051.6257 241.6168 0009645 209.4273 150.6405 16.12063625 23236 SRMSAT 1 37839U 11058B 11362.94519084 .00000619 00000-0 19019-3 0 00583 2 37839 019.9668 315.6119 0019732 136.6080 223.5896 14.12012478011011 JUGNU 1 37841U 11058D 11363.89940659 .00000264 00000-0 00000 0 0 578 2 37841 019.9721 311.3696 0011789 122.7748 237.3887 14.10104352 11124 RAX-2 1 37853U 11061D 11363.93544338 .00003047 00000-0 25523-3 0 555 2 37853 101.7078 321.8944 0252547 115.7027 247.0481 14.78300937 9222 AUBIESAT 1 37854U 11061E 11363.85913429 .00003173 00000-0 26134-3 0 580 2 37854 101.7113 321.8355 0254510 115.5228 247.2523 14.78534086 9203 HRBE 1 37855U 11061F 11362.98088781 .00002997 00000-0 24773-3 0 00689 2 37855 101.7105 320.5563 0254660 117.9030 244.8202 14.78472747009072 /EX